Regional Weather Roundup
Issued by NWS State College, PA

Home | Current Version | Previous Version | Text Only | Print | Product List | Glossary Off
Versions: 1 2 3 4 5 6 7 8 9 10 11 12 13 14 15 16 17 18 19 20 21 22 23 24 25 26 27 28 29 30 31 32 33 34 35 36 37 38 39 40 41 42 43 44 45 46 47 48 49 50

686
ASUS41 KCTP 250910
RWRCTP

REGIONAL WEATHER ROUNDUP
NATIONAL WEATHER SERVICE STATE COLLEGE PA
500 AM EDT THU AUG 25 2016

Note: "fair" indicates few or no clouds below 12,000 feet with no
significant weather and/or obstructions to visibility.

* = STATION THAT DOES NOT REPORT PRECIPITATION /E.G. RAIN...SNOW...ETC/
    THUNDER OR FOG.

PAZ002>004-007>009-013>016-020>023-029>032-251000-
WESTERN PENNSYLVANIA

CITY           SKY/WX    TMP DP  RH WIND       PRES   REMARKS
ERIE           CLOUDY    73  71  93 S8        29.95S
MEADVILLE      CLOUDY    70  68  93 SW9       30.00S
FRANKLIN*      CLOUDY    70  66  88 SW12      30.02F
NEW CASTLE     CLOUDY    70  69  97 VRB3      30.02F
BEAVER COUNTY  NOT AVBL
BUTLER*        NOT AVBL
PITTSBURGH INT LGT RAIN  73  69  87 SW15G22   30.05R FOG
PITTSBURGH     LGT RAIN  74  66  76 S13       30.05F
INDIANA*       CLOUDY    72  68  88 SW8       30.09F
LATROBE        CLOUDY    73  68  83 SW13      30.07F
WASHINGTON CO* CLOUDY    75  66  73 SW6       30.08R
$$

PAZ004>006-010>012-017>019-024>028-033>037-041-042-045-046-049>053-251000-
CENTRAL PENNSYLVANIA

CITY           SKY/WX    TMP DP  RH WIND       PRES   REMARKS
BRADFORD       CLOUDY    69  65  86 VRB6      30.05F
DUBOIS         LGT RAIN  70  64  81 S6        30.06F
CLEARFIELD     CLOUDY    64  63  96 N3        30.08F
JOHNSTOWN      PTCLDY    70  65  84 SW12      30.13F
ALTOONA        PTCLDY    66  65  96 SW3       30.11F
STATE COLLEGE  CLOUDY    68  65  90 SW5       30.08F
WILLIAMSPORT   PTCLDY    69  64  84 CALM      30.05F
SELINSGROVE    CLOUDY    66  66 100 CALM      30.08F
FT INDIANTOWN  CLOUDY    63  63 100 SE1       30.11F
CAPITAL CITY   CLEAR     71  61  70 SE5       30.10F
HARRISBURG     MOCLDY    69  63  81 SE7       30.10S
YORK           CLEAR     67  61  81 CALM      30.11F
$$

PAZ038>040-043-044-047-048-054-055-060>062-067>071-251000-
EASTERN PENNSYLVANIA

CITY           SKY/WX    TMP DP  RH WIND       PRES   REMARKS
SCRANTON       CLEAR     69  62  78 SW8       30.11F
MOUNT POCONO   CLEAR     63  32  31 W5        30.15F
ALLENTOWN      CLEAR     63  60  90 CALM      30.12S
QUAKERTOWN*    PTSUNNY   63  61  94 CALM      30.14F
READING        CLEAR     68  62  81 SW3       30.12S
LANCASTER      PTCLDY    65  65 100 SE3       30.12F
COATESVILLE    SUNNY     64  63  94 CALM      30.15F
POTTSTOWN      PTCLDY    66  63  90 CALM      30.14F
BLUE BELL      PTCLDY    64  63  94 CALM      30.13S
DOYLESTOWN     CLEAR     67  64  90 S3        30.13S
WILLOW GROVE   NOT AVBL
NORTH PHILA    CLEAR     70  63  78 SW6       30.15S
PHILADELPHIA   PTCLDY    69  62  78 SW6       30.14F
$$




USA.gov is the U.S. government's official web portal to all federal, state and local government web resources and services.